| time (UTC) | temp F | wind direction | speed MPH | gust MPH | rain 1hr in | rain 24hr in | rain mn in | humidity % | barometer mb |
| 20260504041405 | 53 | 113 | 0.0 | 3.0 | 0.00 | 0.09 | 0.00 | 92 | 1015.7 |
| 20260504040405 | 53 | 137 | 0.0 | 0.0 | 0.00 | 0.09 | 0.00 | 92 | 1015.7 |
| 20260504035904 | 53 | 136 | 1.0 | 3.0 | 0.00 | 0.09 | 0.00 | 92 | 1015.7 |
| 20260504035405 | 53 | 136 | 1.0 | 3.0 | 0.00 | 0.09 | 0.00 | 93 | 1015.8 |
| 20260504034904 | 53 | 135 | 0.0 | 0.0 | 0.00 | 0.09 | 0.00 | 93 | 1015.7 |
| 20260504034405 | 53 | 135 | 1.0 | 3.0 | 0.00 | 0.09 | 0.00 | 93 | 1015.7 |
| 20260504033405 | 53 | 132 | 2.0 | 5.0 | 0.00 | 0.09 | 0.00 | 93 | 1015.7 |
| 20260504032905 | 53 | 148 | 0.0 | 3.0 | 0.00 | 0.09 | 0.00 | 93 | 1015.8 |
| 20260504032405 | 53 | 148 | 1.0 | 6.0 | 0.00 | 0.09 | 0.00 | 93 | 1015.8 |
| 20260504031905 | 53 | 144 | 1.0 | 3.0 | 0.00 | 0.09 | 0.00 | 93 | 1015.8 |
| 20260504031405 | 53 | 141 | 0.0 | 0.0 | 0.00 | 0.09 | 0.00 | 93 | 1015.9 |
| 20260504030905 | 53 | 141 | 0.0 | 0.0 | 0.00 | 0.09 | 0.00 | 93 | 1015.9 |
| 20260504030405 | 53 | 141 | 0.0 | 0.0 | 0.00 | 0.09 | 0.00 | 93 | 1015.9 |
| 20260504025905 | 53 | 141 | 0.0 | 0.0 | 0.00 | 0.09 | 0.00 | 93 | 1015.8 |
| 20260504025405 | 53 | 141 | 0.0 | 0.0 | 0.00 | 0.09 | 0.00 | 93 | 1015.8 |
| 20260504024905 | 53 | 141 | 0.0 | 1.0 | 0.00 | 0.09 | 0.00 | 93 | 1015.8 |
| 20260504024405 | 53 | 141 | 0.0 | 3.0 | 0.00 | 0.09 | 0.00 | 93 | 1015.9 |
| 20260504023904 | 53 | 126 | 1.0 | 6.0 | 0.00 | 0.09 | 0.00 | 93 | 1015.8 |
| 20260504023404 | 53 | 78 | 0.0 | 5.0 | 0.00 | 0.09 | 0.00 | 93 | 1015.8 |
| 20260504022904 | 53 | 78 | 0.0 | 0.0 | 0.00 | 0.09 | 0.00 | 93 | 1015.8 |
| 20260504022404 | 53 | 78 | 0.0 | 0.0 | 0.00 | 0.09 | 0.00 | 93 | 1015.9 |
| 20260504021904 | 53 | 78 | 1.0 | 3.0 | 0.00 | 0.09 | 0.00 | 93 | 1015.8 |
| 20260504021405 | 53 | 78 | 0.0 | 1.0 | 0.00 | 0.09 | 0.00 | 93 | 1015.8 |
| 20260504020905 | 53 | 78 | 0.0 | 0.0 | 0.00 | 0.09 | 0.00 | 93 | 1015.8 |
| 20260504020404 | 53 | 78 | 0.0 | 0.0 | 0.00 | 0.09 | 0.00 | 92 | 1015.9 |
| 20260504015905 | 53 | 78 | 0.0 | 0.0 | 0.00 | 0.09 | 0.00 | 92 | 1015.9 |
| 20260504014404 | 53 | 78 | 0.0 | 1.0 | 0.00 | 0.09 | 0.00 | 92 | 1016.0 |
| 20260504013904 | 53 | 78 | 0.0 | 2.0 | 0.00 | 0.09 | 0.00 | 92 | 1016.0 |
| 20260504013405 | 53 | 78 | 0.0 | 2.0 | 0.00 | 0.09 | 0.00 | 92 | 1016.0 |
| 20260504012905 | 53 | 78 | 0.0 | 0.0 | 0.00 | 0.09 | 0.00 | 92 | 1016.0 |
| 20260504012404 | 53 | 78 | 0.0 | 0.0 | 0.00 | 0.09 | 0.00 | 92 | 1016.1 |
| 20260504011904 | 53 | 78 | 0.0 | 0.0 | 0.00 | 0.09 | 0.00 | 92 | 1016.1 |
| 20260504011405 | 53 | 78 | 0.0 | 0.0 | 0.00 | 0.09 | 0.00 | 92 | 1016.1 |
| 20260504010904 | 53 | 78 | 0.0 | 0.0 | 0.00 | 0.09 | 0.00 | 92 | 1016.0 |
| 20260504010405 | 53 | 78 | 0.0 | 0.0 | 0.00 | 0.09 | 0.00 | 92 | 1016.1 |
| 20260504005905 | 53 | 78 | 0.0 | 3.0 | 0.00 | 0.09 | 0.00 | 92 | 1016.1 |
| 20260504004904 | 54 | 78 | 0.0 | 0.0 | 0.00 | 0.09 | 0.00 | 92 | 1016.1 |
| 20260504004405 | 54 | 78 | 0.0 | 0.0 | 0.00 | 0.09 | 0.00 | 92 | 1016.1 |
| 20260504003905 | 54 | 78 | 0.0 | 3.0 | 0.00 | 0.09 | 0.00 | 92 | 1016.1 |
| 20260504003405 | 54 | 78 | 0.0 | 0.0 | 0.00 | 0.09 | 0.00 | 92 | 1016.1 |
| 20260504002905 | 54 | 78 | 0.0 | 0.0 | 0.00 | 0.09 | 0.00 | 92 | 1016.1 |
| 20260504002405 | 54 | 78 | 0.0 | 5.0 | 0.00 | 0.09 | 0.00 | 92 | 1016.2 |
| 20260504001904 | 54 | 79 | 0.0 | 2.0 | 0.00 | 0.09 | 0.00 | 92 | 1016.1 |
| 20260504001404 | 54 | 74 | 0.0 | 0.0 | 0.00 | 0.09 | 0.00 | 92 | 1016.2 |
| 20260504000904 | 54 | 74 | 0.0 | 2.0 | 0.00 | 0.09 | 0.00 | 91 | 1016.2 |
| 20260504000405 | 54 | 74 | 0.0 | 2.0 | 0.00 | 0.09 | 0.00 | 91 | 1016.2 |
| 20260503235905 | 54 | 74 | 0.0 | 0.0 | 0.00 | 0.09 | 0.00 | 91 | 1016.2 |
| 20260503235404 | 54 | 74 | 0.0 | 5.0 | 0.00 | 0.09 | 0.00 | 91 | 1016.2 |
| 20260503234905 | 54 | 46 | 0.0 | 2.0 | 0.00 | 0.09 | 0.00 | 91 | 1016.2 |
| 20260503234404 | 54 | 92 | 0.0 | 2.0 | 0.00 | 0.09 | 0.00 | 91 | 1016.2 |
| 20260503233904 | 54 | 95 | 0.0 | 0.0 | 0.00 | 0.09 | 0.00 | 91 | 1016.2 |
| 20260503233405 | 55 | 95 | 0.0 | 0.0 | 0.00 | 0.09 | 0.00 | 91 | 1016.2 |
| 20260503232904 | 55 | 94 | 0.0 | 5.0 | 0.00 | 0.09 | 0.00 | 91 | 1016.1 |
| 20260503232405 | 55 | 92 | 1.0 | 5.0 | 0.00 | 0.09 | 0.00 | 91 | 1016.2 |
| 20260503231904 | 55 | 134 | 0.0 | 2.0 | 0.00 | 0.09 | 0.00 | 90 | 1016.2 |
| 20260503231404 | 55 | 134 | 0.0 | 0.0 | 0.00 | 0.09 | 0.00 | 90 | 1016.2 |
| 20260503230904 | 55 | 134 | 0.0 | 1.0 | 0.00 | 0.09 | 0.00 | 90 | 1016.1 |
| 20260503230405 | 55 | 95 | 0.0 | 0.0 | 0.00 | 0.09 | 0.00 | 90 | 1016.2 |
| 20260503225904 | 55 | 95 | 0.0 | 0.0 | 0.00 | 0.09 | 0.09 | 90 | 1016.2 |
| 20260503225404 | 55 | 94 | 0.0 | 3.0 | 0.00 | 0.09 | 0.09 | 90 | 1016.2 |
| 20260503224904 | 55 | 138 | 1.0 | 2.0 | 0.00 | 0.09 | 0.09 | 89 | 1016.3 |
| 20260503224405 | 56 | 135 | 0.0 | 0.0 | 0.00 | 0.09 | 0.09 | 89 | 1016.3 |
| 20260503223904 | 56 | 135 | 0.0 | 0.0 | 0.00 | 0.09 | 0.09 | 89 | 1016.3 |
| 20260503223406 | 56 | 135 | 0.0 | 1.0 | 0.00 | 0.09 | 0.09 | 89 | 1016.3 |
| 20260503222905 | 56 | 135 | 0.0 | 6.0 | 0.00 | 0.09 | 0.09 | 89 | 1016.2 |
| 20260503222405 | 56 | 122 | 1.0 | 5.0 | 0.00 | 0.09 | 0.09 | 89 | 1016.2 |
| 20260503221905 | 56 | 132 | 0.0 | 3.0 | 0.00 | 0.09 | 0.09 | 89 | 1016.2 |
| 20260503220904 | 56 | 132 | 0.0 | 0.0 | 0.00 | 0.09 | 0.09 | 89 | 1016.1 |
| 20260503220404 | 56 | 132 | 0.0 | 3.0 | 0.00 | 0.09 | 0.09 | 89 | 1016.2 |
| 20260503215404 | 56 | 132 | 0.0 | 1.0 | 0.00 | 0.09 | 0.09 | 89 | 1016.3 |
| 20260503214404 | 56 | 151 | 2.0 | 6.0 | 0.00 | 0.09 | 0.09 | 88 | 1016.3 |
| 20260503213904 | 56 | 137 | 1.0 | 7.0 | 0.00 | 0.09 | 0.09 | 88 | 1016.3 |
| 20260503212904 | 57 | 111 | 0.0 | 5.0 | 0.00 | 0.09 | 0.09 | 88 | 1016.3 |
| 20260503212404 | 57 | 103 | 0.0 | 5.0 | 0.00 | 0.09 | 0.09 | 88 | 1016.2 |
| 20260503211904 | 57 | 120 | 0.0 | 8.0 | 0.00 | 0.09 | 0.09 | 87 | 1016.1 |
| 20260503211404 | 57 | 82 | 2.0 | 9.0 | 0.00 | 0.09 | 0.09 | 87 | 1016.1 |
| 20260503210904 | 57 | 116 | 3.0 | 7.0 | 0.00 | 0.09 | 0.09 | 87 | 1016.0 |
| 20260503205904 | 57 | 119 | 1.0 | 9.0 | 0.00 | 0.09 | 0.09 | 87 | 1016.0 |
| 20260503205404 | 57 | 136 | 1.0 | 10.0 | 0.00 | 0.09 | 0.09 | 87 | 1015.9 |
| 20260503204904 | 57 | 125 | 0.0 | 9.0 | 0.00 | 0.09 | 0.09 | 86 | 1015.9 |
| 20260503204405 | 57 | 116 | 4.0 | 9.0 | 0.00 | 0.09 | 0.09 | 86 | 1015.9 |
| 20260503203905 | 57 | 154 | 3.0 | 8.0 | 0.00 | 0.09 | 0.09 | 86 | 1015.7 |
| 20260503203404 | 57 | 113 | 2.0 | 9.0 | 0.00 | 0.09 | 0.09 | 86 | 1015.7 |
| 20260503202905 | 57 | 83 | 2.0 | 6.0 | 0.00 | 0.09 | 0.09 | 86 | 1015.6 |
| 20260503202404 | 57 | 118 | 5.0 | 10.0 | 0.00 | 0.09 | 0.09 | 86 | 1015.5 |
| 20260503201904 | 58 | 156 | 2.0 | 8.0 | 0.00 | 0.09 | 0.09 | 86 | 1015.4 |
| 20260503201405 | 58 | 128 | 1.0 | 7.0 | 0.00 | 0.09 | 0.09 | 86 | 1015.3 |
| 20260503200404 | 58 | 158 | 0.0 | 10.0 | 0.00 | 0.09 | 0.09 | 86 | 1015.1 |
| 20260503195404 | 58 | 107 | 0.0 | 5.0 | 0.00 | 0.09 | 0.09 | 86 | 1015.1 |
| 20260503194904 | 58 | 149 | 1.0 | 5.0 | 0.00 | 0.09 | 0.09 | 85 | 1015.0 |
| 20260503194404 | 58 | 117 | 0.0 | 0.0 | 0.00 | 0.09 | 0.09 | 85 | 1015.1 |
| 20260503193904 | 58 | 117 | 1.0 | 7.0 | 0.00 | 0.09 | 0.09 | 84 | 1015.0 |
| 20260503193404 | 59 | 131 | 0.0 | 0.0 | 0.00 | 0.09 | 0.09 | 84 | 1015.0 |
| 20260503192905 | 59 | 124 | 1.0 | 7.0 | 0.00 | 0.09 | 0.09 | 84 | 1014.9 |
| 20260503191405 | 59 | 98 | 0.0 | 6.0 | 0.00 | 0.09 | 0.09 | 83 | 1014.8 |
| 20260503190906 | 59 | 97 | 1.0 | 7.0 | 0.00 | 0.09 | 0.09 | 83 | 1014.8 |
| 20260503190405 | 60 | 68 | 2.0 | 10.0 | 0.00 | 0.09 | 0.09 | 83 | 1014.7 |
| 20260503184905 | 60 | 51 | 0.0 | 5.0 | 0.00 | 0.09 | 0.09 | 84 | 1014.5 |
| 20260503184405 | 61 | 77 | 3.0 | 8.0 | 0.00 | 0.09 | 0.09 | 84 | 1014.5 |
| 20260503183906 | 61 | 93 | 3.0 | 7.0 | 0.00 | 0.09 | 0.09 | 84 | 1014.5 |
| 20260503183405 | 61 | 142 | 1.0 | 10.0 | 0.00 | 0.09 | 0.09 | 84 | 1014.3 |
| 20260503182905 | 61 | 135 | 4.0 | 8.0 | 0.00 | 0.09 | 0.09 | 84 | 1014.4 |
| 20260503182405 | 62 | 108 | 2.0 | 6.0 | 0.00 | 0.09 | 0.09 | 85 | 1014.3 |
| 20260503181906 | 62 | 108 | 0.0 | 2.0 | 0.00 | 0.09 | 0.09 | 86 | 1014.4 |
| 20260503181405 | 61 | 114 | 1.0 | 6.0 | 0.00 | 0.09 | 0.09 | 87 | 1014.4 |
| 20260503180905 | 61 | 129 | 3.0 | 8.0 | 0.02 | 0.09 | 0.09 | 88 | 1014.3 |
| 20260503175905 | 61 | 74 | 0.0 | 3.0 | 0.02 | 0.09 | 0.09 | 88 | 1014.4 |
| 20260503175405 | 60 | 74 | 0.0 | 0.0 | 0.03 | 0.09 | 0.09 | 88 | 1014.4 |
| 20260503174905 | 60 | 74 | 0.0 | 0.0 | 0.03 | 0.09 | 0.09 | 89 | 1014.4 |
| 20260503174405 | 61 | 74 | 0.0 | 0.0 | 0.03 | 0.09 | 0.09 | 88 | 1014.4 |
| 20260503173905 | 60 | 188 | 0.0 | 3.0 | 0.04 | 0.09 | 0.09 | 88 | 1014.4 |
| 20260503172905 | 60 | 137 | 0.0 | 3.0 | 0.06 | 0.09 | 0.09 | 88 | 1014.3 |
| 20260503172406 | 60 | 136 | 0.0 | 3.0 | 0.06 | 0.09 | 0.09 | 89 | 1014.4 |
| 20260503171905 | 60 | 136 | 0.0 | 2.0 | 0.06 | 0.09 | 0.09 | 89 | 1014.4 |
| 20260503171405 | 60 | 186 | 0.0 | 3.0 | 0.09 | 0.09 | 0.09 | 88 | 1014.2 |
| 20260503150905 | 66 | 117 | 5.0 | 10.0 | 0.00 | 0.00 | 0.00 | 68 | 1014.2 |
| 20260503130405 | 66 | 124 | 3.0 | 9.0 | 0.00 | 0.00 | 0.00 | 67 | 1014.9 |
| 20260503110405 | 65 | 58 | 3.0 | 8.0 | 0.00 | 0.00 | 0.00 | 64 | 1015.4 |
| 20260503090405 | 60 | 122 | 1.0 | 5.0 | 0.00 | 0.00 | 0.00 | 87 | 1016.0 |
| 20260503081405 | 56 | 152 | 1.0 | 5.0 | 0.00 | 0.00 | 0.00 | 95 | 1016.1 |
| 20260503080904 | 56 | 168 | 0.0 | 0.0 | 0.00 | 0.00 | 0.00 | 95 | 1016.0 |
| 20260503072905 | 55 | 171 | 0.0 | 2.0 | 0.00 | 0.00 | 0.00 | 95 | 1015.8 |
| 20260503072405 | 55 | 171 | 0.0 | 2.0 | 0.00 | 0.00 | 0.00 | 95 | 1015.9 |
| 20260503071905 | 55 | 171 | 1.0 | 2.0 | 0.00 | 0.00 | 0.00 | 95 | 1015.8 |
| 20260503071405 | 55 | 171 | 0.0 | 0.0 | 0.00 | 0.00 | 0.00 | 95 | 1015.8 |
| 20260503070905 | 55 | 171 | 0.0 | 1.0 | 0.00 | 0.00 | 0.00 | 95 | 1015.8 |
| 20260503070405 | 55 | 171 | 0.0 | 0.0 | 0.00 | 0.00 | 0.00 | 95 | 1015.7 |
| 20260503054905 | 54 | 97 | 0.0 | 0.0 | 0.00 | 0.00 | 0.00 | 94 | 1015.3 |
| 20260503054404 | 54 | 97 | 0.0 | 0.0 | 0.00 | 0.00 | 0.00 | 94 | 1015.3 |
| 20260503053904 | 54 | 97 | 0.0 | 0.0 | 0.00 | 0.00 | 0.00 | 94 | 1015.3 |
| 20260503053405 | 54 | 97 | 0.0 | 0.0 | 0.00 | 0.00 | 0.00 | 94 | 1015.3 |
| 20260503052905 | 54 | 97 | 0.0 | 0.0 | 0.00 | 0.00 | 0.00 | 94 | 1015.3 |
| 20260503052405 | 54 | 97 | 0.0 | 0.0 | 0.00 | 0.00 | 0.00 | 94 | 1015.2 |
| 20260503051905 | 54 | 97 | 0.0 | 0.0 | 0.00 | 0.00 | 0.00 | 94 | 1015.2 |
| 20260503051405 | 54 | 97 | 0.0 | 0.0 | 0.00 | 0.00 | 0.00 | 94 | 1015.2 |
| 20260503050905 | 54 | 97 | 0.0 | 0.0 | 0.00 | 0.00 | 0.00 | 94 | 1015.3 |
| 20260503050405 | 54 | 97 | 0.0 | 0.0 | 0.00 | 0.00 | 0.00 | 94 | 1015.2 |
| 20260503045904 | 53 | 97 | 0.0 | 0.0 | 0.00 | 0.00 | 0.00 | 94 | 1015.1 |
| 20260503045405 | 54 | 97 | 0.0 | 0.0 | 0.00 | 0.00 | 0.00 | 93 | 1015.0 |
| 20260503044905 | 54 | 97 | 0.0 | 0.0 | 0.00 | 0.00 | 0.00 | 93 | 1015.1 |
| 20260503044405 | 54 | 97 | 0.0 | 0.0 | 0.00 | 0.00 | 0.00 | 93 | 1015.1 |
| 20260503043405 | 55 | 97 | 0.0 | 0.0 | 0.00 | 0.00 | 0.00 | 93 | 1015.0 |
| 20260503042905 | 54 | 97 | 0.0 | 0.0 | 0.00 | 0.00 | 0.00 | 93 | 1015.0 |
| 20260503041904 | 54 | 97 | 0.0 | 0.0 | 0.00 | 0.00 | 0.00 | 93 | 1015.1 |